Вернуться в каталог

STARLINK-3558

АктивенСвязьVLEO
NORAD 52119·PAYLOAD·🇺🇸 United States

Запущен Mar 19, 2022 с Cape Canaveral Space Force Station

Loading…

Ближайшие Пролёты (ближайшие 24 часа)

TLE

СвежийSource: CelesTrak SupGP

Эпоха: Sep 15, 2026, 01:55 UTC

1 52119C 22029AH  26258.08034722  .00022021  00000+0  65064-3 0  2580
2 52119  53.1570 293.0024 0001239  93.2942  90.1193 15.34378729    18

Отслеживайте STARLINK-3558 в реальном времени с AllMySat

Download on the App Store